[[[{"header":{"parameterUnit":"kt","parameterCategory":2,"dx":1,"dy":1,"la1":30.253999710083008,"la2":30.299108505249023,"lo1":-89.0895004272461,"lo2":-89.04439544677734,"nx":28,"ny":28,"refTime":"2022-09-23T21:00:00:Z","depth":"0","parameterNumber":2,"parameterNumberName":"U-component_of_CURRENTS"},"data":[0.5452,0.5471,0.5461,0.5468,0.5461,0.5459,0.5511,0.5691,0.6036,0.6634,0.7187,0.7773,0.871,0.9719,1.0028,1.0004,0.9238,0.9033,0.8738,0.9424,0.9433,0.9442,0.9165,0.934,0.9339,0.7368,0.7354,0.7343,0.5412,0.5405,0.5445,0.5433,0.5454,0.5474,0.5658,0.5757,0.6082,0.6676,0.716,0.8206,0.9049,0.9838,1.0685,1.058,1.0129,1.033,0.9434,0.9262,1.0341,1.0108,1.0487,1.0487,1.0488,1.0488,1.0488,1.0489,0.5319,0.5335,0.5318,0.5344,0.5386,0.5467,0.5547,0.5814,0.615,0.6679,0.7156,0.7808,0.8853,1.0114,1.0442,1.0859,1.052,1.0674,1.0535,1.0017,0.959,1.0568,1.1309,1.131,1.131,1.131,1.1311,0,0.5224,0.5206,0.5209,0.5229,0.5289,0.5375,0.5552,0.572,0.6079,0.6458,0.705,0.7516,0.8645,0.9358,1.0232,1.0637,1.0156,1.0759,1.038,0.9836,0.9111,0.886,0.9744,1.054,1.0536,1.0533,1.0531,1.053,0.5126,0.5123,0.5119,0.5139,0.515,0.5249,0.5362,0.5579,0.5817,0.6448,0.6715,0.7473,0.8025,0.9169,0.9719,1.0404,0.9935,1.0647,1.0315,0.9843,0.9654,0.9055,0.8809,1.0487,1.0492,1.0497,1.05,0,0.5089,0.5052,0.5071,0.5101,0.5114,0.5184,0.5379,0.5568,0.5841,0.6274,0.6435,0.7008,0.7743,0.8218,0.8998,0.9188,0.9579,0.9951,0.9734,0.9758,0.9663,0.9454,0.9591,0.9373,1.0527,1.0535,1.0542,0,0.5051,0.506,0.5035,0.5041,0.5112,0.5156,0.5341,0.5482,0.5808,0.6119,0.6378,0.6774,0.7271,0.7822,0.8136,0.8852,0.8928,0.9103,0.9163,0.901,0.8994,0.8779,0.8558,0.9134,0.9128,0.9123,0.9118,0,0.5054,0.5037,0.5032,0.5036,0.5094,0.5149,0.5216,0.5461,0.5638,0.6022,0.6247,0.6713,0.7055,0.7477,0.7938,0.7759,0.874,0.8528,0.8881,0.8884,0.8969,0.8957,0.9241,0.9111,0.9109,0.9107,0.9105,0,0.5046,0.5037,0.5021,0.5078,0.5094,0.511,0.5306,0.5388,0.5714,0.585,0.6154,0.6343,0.6817,0.6737,0.7483,0.7208,0.7491,0.7716,0.7746,0.785,0.7658,0.819,0.8713,0.8342,0.7956,0.7945,0.7936,0,0.5056,0.5036,0.5049,0.505,0.5055,0.5122,0.52,0.5328,0.5459,0.568,0.5936,0.6163,0.6155,0.6296,0.6572,0.6905,0.7207,0.6794,0.7395,0.7416,0.7481,0.7956,0.7883,0.8534,0.7803,0.7817,0.7827,0,0.5079,0.5075,0.5074,0.5083,0.5104,0.5122,0.5186,0.5306,0.5437,0.5518,0.5743,0.5938,0.6075,0.6143,0.622,0.6479,0.6982,0.6451,0.6463,0.6752,0.7674,0.7756,0.7853,0.6968,0.6982,0.6994,0.7722,0,0.509,0.5095,0.5093,0.5103,0.5116,0.5123,0.5179,0.5225,0.5263,0.5343,0.5564,0.5668,0.5825,0.5847,0.5854,0.6217,0.6209,0.6135,0.6068,0.6294,0.6567,0.665,0.5624,0.5621,0.5619,0.5617,0,0,0.5111,0.5125,0.5149,0.5145,0.5157,0.5189,0.5187,0.5223,0.5243,0.5326,0.527,0.549,0.5508,0.5733,0.5796,0.5744,0.5901,0.5674,0.6114,0.6169,0.622,0.6495,0.6577,0.5613,0.5612,0.5611,0.561,0,0.5123,0.5161,0.5153,0.5162,0.5182,0.5193,0.5199,0.5211,0.524,0.5262,0.5319,0.5452,0.539,0.5517,0.5554,0.5689,0.5746,0.5633,0.5772,0.6081,0.6138,0.619,0.6471,0.6547,0.5604,0.5605,0.5605,0,0.5144,0.5164,0.5168,0.5197,0.5202,0.5201,0.5213,0.5219,0.524,0.5216,0.5229,0.5285,0.5307,0.5367,0.5383,0.5316,0.5627,0.5379,0.5392,0.5471,0.579,0.5853,0.5909,0.5207,0.5206,0.5205,0,0,0.515,0.5158,0.5186,0.5202,0.5209,0.5216,0.5218,0.522,0.5228,0.5227,0.5208,0.5217,0.5278,0.526,0.5285,0.5292,0.5446,0.5333,0.5352,0.5368,0.5453,0.5774,0.5833,0.5201,0.5201,0.52,0,0,0.5144,0.5171,0.5186,0.5209,0.5217,0.522,0.5215,0.5221,0.5222,0.5225,0.5197,0.519,0.525,0.5195,0.515,0.5246,0.5167,0.5174,0.5271,0.5293,0.5311,0.5419,0.508,0,0,0,0,0,0.516,0.5172,0.5186,0.5194,0.5219,0.5222,0.5221,0.5216,0.5218,0.5211,0.5222,0.5167,0.5189,0.5147,0.5136,0.5195,0.5149,0.5158,0.5167,0.5298,0.5322,0.5343,0,0,0,0,0,0,0.5163,0.5173,0.5185,0.5194,0.52,0.5222,0.5217,0.5214,0.5218,0.5216,0.5174,0.5165,0.5138,0.5147,0.5138,0.5196,0.5082,0.5153,0.5161,0.5168,0.5306,0.5326,0.5343,0,0,0,0,0,0.5165,0.5173,0.5222,0.5192,0.5197,0.5197,0.5216,0.5214,0.521,0.5178,0.517,0.5207,0.5139,0.5129,0.5141,0.5203,0.5088,0.5085,0.5158,0.5164,0.5169,0.5316,0,0,0,0,0,0,0.5167,0.5156,0.5222,0.5222,0.519,0.5194,0.5196,0.5214,0.5169,0.5165,0.5209,0.5207,0.5139,0.5132,0.5125,0.5211,0.5092,0.5089,0.5087,0.5162,0.5167,0.5172,0,0,0,0,0,0,0.5152,0.5157,0.5222,0.5219,0.5219,0.5191,0.5194,0.5165,0.5167,0.52,0.52,0.5208,0.514,0.5134,0.5128,0.5084,0.5095,0.5093,0.5091,0.5089,0.5166,0.517,0,0,0,0,0,0,0.5153,0.5157,0.5219,0.5219,0.5218,0.5217,0.5162,0.5179,0.5199,0.52,0.5198,0.5198,0.5141,0.5136,0.513,0.5089,0.5085,0.5095,0.5093,0.5092,0.5091,0,0,0,0,0,0,0,0.5154,0.5138,0.5227,0.5218,0.5218,0.5227,0.5227,0.5226,0.5199,0.5199,0.5198,0.5198,0.5112,0.5108,0.5105,0.5093,0,0,0.5096,0.5094,0,0,0,0,0,0,0,0,0.5135,0.5137,0.5227,0.5227,0.5228,0.5227,0.5227,0.5226,0.5199,0.5199,0.5198,0.5198,0.5111,0.5108,0.5106,0,0,0,0,0,0,0,0,0,0,0,0,0,0,0,0.5227,0.5227,0,0.5227,0.5227,0.5226,0.5199,0.5199,0.5198,0.5198,0.511,0.5108,0.5106,0,0,0,0,0,0,0,0,0,0,0,0,0,0,0,0,0,0,0,0,0,0,0,0,0,0,0,0,0,0,0,0,0,0,0,0,0,0,0,0,0,0,0,0,0,0,0,0,0,0,0,0,0,0,0,0,0,0,0,0,0,0,0,0,0,0,0,0,0]}],[{"header":{"parameterUnit":"kt","parameterCategory":2,"dx":1,"dy":1,"la1":30.253999710083008,"la2":30.299108505249023,"lo1":-89.0895004272461,"lo2":-89.04439544677734,"nx":28,"ny":28,"refTime":"2022-09-23T21:00:00:Z","depth":"0","parameterNumber":3,"parameterNumberName":"V-component_of_CURRENTS"},"data":[0.2232,0.2347,0.2438,0.2909,0.3146,0.364,0.3975,0.4489,0.5019,0.5836,0.6292,0.6648,0.5807,0.2532,0.0171,-0.0414,-0.1295,-0.1395,-0.1881,-0.1038,-0.0943,-0.0853,-0.0947,-0.1781,-0.1785,-0.3021,-0.3035,-0.3046,0.2197,0.2272,0.2418,0.2665,0.2979,0.3099,0.3638,0.399,0.4608,0.5273,0.5762,0.5824,0.4798,0.3691,0.1899,0.0762,0.0394,0.0149,-0.0063,-0.0252,0.1081,0.1061,0.0641,0.0642,0.0642,0.0643,0.0643,0.0644,0.2151,0.2197,0.2264,0.2432,0.2662,0.3051,0.3334,0.3745,0.4269,0.4959,0.5115,0.559,0.4919,0.399,0.3222,0.1843,0.1887,0.1419,0.1108,0.1043,0.0727,0.2159,0.2021,0.2021,0.2021,0.2021,0.2021,0,0.2113,0.2126,0.2163,0.231,0.2483,0.2749,0.3067,0.3331,0.3792,0.418,0.4709,0.4942,0.4662,0.4272,0.3481,0.3055,0.2077,0.2406,0.1814,0.1386,0.1168,0.0769,0.2278,0.2332,0.2334,0.2336,0.2336,0.2337,0.2108,0.2095,0.2166,0.2243,0.2275,0.2471,0.2696,0.3002,0.3326,0.3877,0.4127,0.4279,0.4535,0.4105,0.3531,0.2984,0.2477,0.2469,0.2399,0.177,0.1316,0.1178,0.0927,0.2356,0.2354,0.2352,0.235,0,0.2121,0.2089,0.2116,0.2198,0.2257,0.2374,0.2696,0.2968,0.3245,0.369,0.3798,0.4088,0.4094,0.3837,0.3575,0.3213,0.2591,0.2713,0.2691,0.2559,0.1732,0.1418,0.1098,0.0785,0.2364,0.2361,0.2358,0,0.212,0.2131,0.2128,0.212,0.2272,0.2333,0.2611,0.2795,0.3134,0.3476,0.3566,0.3846,0.3698,0.3643,0.3335,0.3043,0.3152,0.2694,0.2555,0.2563,0.2542,0.1961,0.1627,0.2832,0.2834,0.2835,0.2837,0,0.215,0.2118,0.2116,0.2113,0.2193,0.2297,0.2399,0.2683,0.2896,0.3202,0.3396,0.3533,0.3616,0.3453,0.3206,0.3141,0.3069,0.2912,0.2566,0.2544,0.2463,0.2429,0.2118,0.2839,0.2839,0.284,0.284,0,0.2135,0.2105,0.2075,0.2171,0.2184,0.221,0.2478,0.2567,0.2857,0.2975,0.3168,0.3186,0.3335,0.3148,0.3104,0.3084,0.2848,0.2709,0.2695,0.2504,0.2212,0.2132,0.2286,0.1713,0.2358,0.2357,0.2355,0,0.2184,0.2115,0.2102,0.2098,0.2076,0.2132,0.2243,0.2356,0.2465,0.2646,0.2722,0.2821,0.2702,0.2746,0.2788,0.2664,0.2645,0.2636,0.231,0.2301,0.224,0.2418,0.2425,0.2265,0.2334,0.2336,0.2338,0,0.2217,0.214,0.213,0.2137,0.2083,0.207,0.2147,0.2239,0.2398,0.2352,0.2552,0.2523,0.2564,0.2529,0.2455,0.2487,0.2581,0.2289,0.2281,0.2267,0.2515,0.2391,0.2391,0.2495,0.2501,0.2506,0.2321,0,0.2242,0.22,0.2167,0.2111,0.209,0.2042,0.204,0.2072,0.2073,0.2101,0.22,0.2106,0.2119,0.2075,0.1985,0.2147,0.1986,0.1893,0.1826,0.1974,0.1845,0.186,0.1597,0.1591,0.1586,0.1582,0,0,0.2303,0.224,0.2186,0.2135,0.2112,0.2052,0.2022,0.2011,0.1899,0.1973,0.1872,0.1831,0.172,0.1823,0.1859,0.1721,0.1635,0.1727,0.185,0.1881,0.1909,0.1802,0.1822,0.1573,0.1571,0.1569,0.1568,0,0.2303,0.2263,0.2216,0.2165,0.2079,0.2038,0.2026,0.1925,0.1926,0.1861,0.18,0.1806,0.1595,0.1619,0.1581,0.1644,0.1507,0.1547,0.1794,0.1805,0.1843,0.1875,0.1778,0.18,0.1556,0.1556,0.1557,0,0.2333,0.2275,0.2246,0.2147,0.2082,0.2034,0.198,0.1906,0.1907,0.1749,0.1707,0.1628,0.1494,0.1459,0.1419,0.1361,0.1386,0.1327,0.1348,0.1435,0.1442,0.1483,0.1519,0.1072,0.1072,0.1072,0,0,0.2335,0.2289,0.2193,0.2138,0.2105,0.2012,0.1961,0.1913,0.1815,0.1774,0.1675,0.1564,0.1499,0.144,0.1335,0.1268,0.1214,0.1285,0.1308,0.1328,0.1425,0.1437,0.1474,0.1072,0.1072,0.1072,0,0,0.2325,0.2225,0.2207,0.2138,0.2063,0.1943,0.1898,0.1859,0.1763,0.1756,0.1631,0.1593,0.1534,0.1401,0.1419,0.1344,0.1227,0.1219,0.1491,0.1516,0.1538,0.1699,0.1332,0,0,0,0,0,0.228,0.2242,0.2228,0.2205,0.206,0.196,0.1937,0.1855,0.1844,0.1816,0.1722,0.1649,0.1394,0.1407,0.1368,0.1442,0.1073,0.1073,0.1073,0.1403,0.1431,0.1455,0,0,0,0,0,0,0.227,0.2244,0.2228,0.2113,0.2078,0.1961,0.1928,0.1905,0.1845,0.1838,0.1673,0.1644,0.1552,0.1418,0.1385,0.146,0.1343,0.1073,0.1073,0.1073,0.1413,0.1436,0.1456,0,0,0,0,0,0.2262,0.2241,0.2038,0.2111,0.2081,0.1963,0.1929,0.1909,0.1862,0.1706,0.1677,0.1804,0.1555,0.1518,0.1398,0.1481,0.1365,0.1353,0.1073,0.1073,0.1073,0.1424,0,0,0,0,0,0,0.2255,0.2217,0.2029,0.2015,0.2119,0.1967,0.1944,0.1913,0.1731,0.1704,0.183,0.1826,0.1556,0.1527,0.15,0.1498,0.1383,0.1371,0.1363,0.1073,0.1073,0.1073,0,0,0,0,0,0,0.2227,0.2207,0.2022,0.2037,0.2025,0.1972,0.1951,0.1825,0.1728,0.1865,0.1856,0.183,0.1576,0.1534,0.1512,0.132,0.1397,0.1385,0.1377,0.1372,0.1073,0.1073,0,0,0,0,0,0,0.2217,0.2199,0.2041,0.2031,0.202,0.1862,0.1855,0.17,0.1783,0.1872,0.1783,0.1783,0.1582,0.1559,0.1521,0.1339,0.1325,0.1397,0.1389,0.1383,0.1379,0,0,0,0,0,0,0,0.2208,0.2355,0.2108,0.2026,0.2016,0.1889,0.1885,0.1882,0.1783,0.1783,0.1783,0.1783,0.1464,0.1451,0.1438,0.1354,0,0,0.1398,0.1392,0,0,0,0,0,0,0,0,0.236,0.2356,0.2108,0.2105,0.2102,0.1889,0.1886,0.1883,0.1783,0.1783,0.1783,0.1783,0.146,0.145,0.1439,0,0,0,0,0,0,0,0,0,0,0,0,0,0,0,0.2108,0.2105,0,0.1888,0.1886,0.1883,0.1783,0.1783,0.1783,0.1783,0.1457,0.1449,0.144,0,0,0,0,0,0,0,0,0,0,0,0,0,0,0,0,0,0,0,0,0,0,0,0,0,0,0,0,0,0,0,0,0,0,0,0,0,0,0,0,0,0,0,0,0,0,0,0,0,0,0,0,0,0,0,0,0,0,0,0,0,0,0,0,0,0,0,0,0]}]],[[{"header":{"parameterUnit":"kt","parameterCategory":2,"dx":1,"dy":1,"la1":30.253999710083008,"la2":30.299108505249023,"lo1":-89.0895004272461,"lo2":-89.04439544677734,"nx":28,"ny":28,"refTime":"2022-09-23T21:00:00:Z","depth":"2","parameterNumber":2,"parameterNumberName":"U-component_of_CURRENTS"},"data":[0.3256,0.3295,0.3387,0.3483,0.3627,0.3723,0.3829,0.3975,0.4066,0.3981,0.3918,0.4158,0.4341,0.3629,0.3536,0.3317,0.3525,0.3169,0.4732,0.4204,0.4269,0.4415,0.3961,0,0,0,0,0,0.3367,0.3471,0.3565,0.3691,0.3769,0.3925,0.4119,0.4173,0.4429,0.4627,0.4902,0.4456,0.4456,0.4632,0.4223,0.4243,0.3938,0.4219,0.3716,0.3794,0.3863,0.3513,0.3103,0.3099,0.3096,0.3093,0,0,0.3548,0.3582,0.3682,0.3803,0.3922,0.4053,0.4119,0.4346,0.4581,0.4879,0.5246,0.5432,0.5445,0.5438,0.5429,0.5322,0.5624,0.5314,0.532,0.534,0.5085,0.499,0.5081,0.5089,0.5097,0.5104,0.5111,0,0.3659,0.374,0.3784,0.3915,0.4013,0.4114,0.4275,0.4387,0.4668,0.4927,0.5345,0.562,0.601,0.5893,0.6171,0.6122,0.5922,0.5881,0.6755,0.4812,0.4702,0.4688,0.4692,0.478,0.4787,0.4793,0.4797,0.48,0.3774,0.3806,0.3943,0.3994,0.4046,0.4153,0.4234,0.4414,0.4545,0.4971,0.5103,0.5576,0.5867,0.6396,0.6292,0.6502,0.6663,0.6044,0.5559,0.6196,0.6195,0.6152,0.6112,0.4883,0.4873,0.4864,0.4857,0,0.3826,0.3889,0.3947,0.4053,0.4099,0.4156,0.4318,0.4408,0.4598,0.4829,0.4921,0.5205,0.5617,0.5825,0.6138,0.6065,0.6285,0.6362,0.5639,0.5588,0.6106,0.6071,0.6512,0.6518,0.6522,0.6526,0.6529,0,0.3879,0.3917,0.4006,0.4024,0.4109,0.4168,0.4285,0.4375,0.454,0.4699,0.48,0.499,0.5134,0.542,0.5501,0.58,0.5859,0.5748,0.5793,0.512,0.5067,0.5481,0.5448,0.5727,0.5723,0.5719,0.5716,0,0.3866,0.395,0.3997,0.4017,0.4094,0.4154,0.4212,0.4325,0.4411,0.4593,0.4711,0.4854,0.5025,0.5135,0.5362,0.5201,0.571,0.5506,0.5651,0.5658,0.5103,0.5052,0.5712,0.5711,0.571,0.5709,0.5707,0,0.3874,0.3905,0.397,0.4034,0.4054,0.4107,0.421,0.4275,0.4404,0.4469,0.4567,0.4622,0.4804,0.4713,0.5017,0.4885,0.5003,0.5084,0.5103,0.5125,0.5071,0.4785,0.4896,0.5317,0.5312,0.5307,0.5303,0,0.3829,0.389,0.3904,0.3976,0.4004,0.4037,0.4102,0.4166,0.4226,0.4323,0.4384,0.4497,0.4446,0.4518,0.4586,0.4735,0.4857,0.4646,0.496,0.4972,0.4978,0.5202,0.4477,0.484,0.5241,0.5247,0.5252,0,0.3775,0.3819,0.3831,0.3858,0.3902,0.3925,0.4003,0.4066,0.4135,0.4176,0.4273,0.4365,0.4387,0.4427,0.4448,0.4527,0.4764,0.4517,0.4521,0.4708,0.5086,0.5115,0.5161,0.4714,0.4719,0.4723,0.5203,0,0.3741,0.3767,0.3791,0.3825,0.3852,0.3893,0.3917,0.3964,0.3989,0.4014,0.4124,0.4169,0.425,0.4274,0.4279,0.4428,0.4466,0.4398,0.4352,0.4458,0.4659,0.4698,0.4217,0.4216,0.4214,0.4213,0,0,0.3686,0.3701,0.3694,0.3729,0.3751,0.376,0.3802,0.3833,0.3876,0.3913,0.39,0.403,0.4068,0.418,0.4217,0.4226,0.4314,0.4206,0.4391,0.4411,0.4429,0.4625,0.4663,0.4211,0.4211,0.421,0.421,0,0.3653,0.3647,0.3674,0.3691,0.3728,0.3732,0.3751,0.3772,0.38,0.3861,0.3878,0.3951,0.4011,0.4061,0.4093,0.4198,0.4245,0.4211,0.4267,0.4377,0.4398,0.4417,0.4613,0.4649,0.4207,0.4207,0.4207,0,0.3607,0.3605,0.361,0.3623,0.3643,0.3675,0.3655,0.3701,0.3739,0.3729,0.3799,0.3835,0.3878,0.3957,0.3998,0.3967,0.4184,0.4067,0.4075,0.4087,0.4199,0.4223,0.4244,0.397,0.3969,0.3969,0,0,0.3589,0.3596,0.3594,0.3614,0.3627,0.3641,0.3661,0.3674,0.3702,0.3723,0.3745,0.3788,0.3848,0.3877,0.3923,0.3989,0.4056,0.4039,0.405,0.4059,0.4076,0.4189,0.4212,0.3966,0.3966,0.3965,0,0,0.358,0.3567,0.3568,0.3579,0.3602,0.3606,0.3642,0.3646,0.3692,0.3709,0.3716,0.3727,0.3818,0.382,0.3779,0.3915,0.3868,0.3877,0.391,0.3924,0.3934,0.3943,0.3755,0,0,0,0,0,0.355,0.3563,0.3564,0.3565,0.3576,0.3601,0.3607,0.3625,0.3629,0.3659,0.369,0.3685,0.3804,0.3768,0.3778,0.3839,0.3928,0.3934,0.3941,0.3999,0.4014,0.4026,0,0,0,0,0,0,0.355,0.3549,0.3564,0.3562,0.3565,0.3599,0.3582,0.3588,0.3627,0.363,0.3677,0.3685,0.3687,0.3762,0.3772,0.383,0.3752,0.393,0.3936,0.3941,0.4004,0.4016,0.4027,0,0,0,0,0,0.3551,0.355,0.3558,0.3563,0.3566,0.3592,0.3582,0.3587,0.3625,0.3642,0.3651,0.3643,0.3686,0.3697,0.3768,0.3827,0.3746,0.3749,0.3934,0.3939,0.3943,0.401,0,0,0,0,0,0,0.3551,0.3558,0.3559,0.3562,0.3564,0.3592,0.3595,0.3586,0.3637,0.3644,0.3606,0.3607,0.3686,0.3695,0.3703,0.3826,0.374,0.3744,0.3746,0.3937,0.3941,0.3944,0,0,0,0,0,0,0.3559,0.356,0.3561,0.3561,0.3564,0.3593,0.3595,0.3631,0.3638,0.3598,0.36,0.3606,0.3685,0.3692,0.3699,0.3754,0.3736,0.374,0.3742,0.3743,0.394,0.3943,0,0,0,0,0,0,0.356,0.3561,0.356,0.3562,0.3565,0.3598,0.3627,0.3644,0.3616,0.3596,0.3616,0.3616,0.3684,0.369,0.3696,0.3748,0.3752,0.3736,0.3739,0.374,0.3741,0,0,0,0,0,0,0,0.3562,0.3544,0.3543,0.3564,0.3566,0.3589,0.3589,0.359,0.3616,0.3616,0.3616,0.3616,0.3717,0.372,0.3724,0.3743,0,0,0.3736,0.3738,0,0,0,0,0,0,0,0,0.3545,0.3544,0.3544,0.3544,0.3545,0.3589,0.3589,0.359,0.3616,0.3616,0.3616,0.3616,0.3718,0.3721,0.3724,0,0,0,0,0,0,0,0,0,0,0,0,0,0,0,0.3544,0.3544,0,0.3589,0.3589,0.359,0.3616,0.3616,0.3616,0.3616,0.3718,0.3721,0.3723,0,0,0,0,0,0,0,0,0,0,0,0,0,0,0,0,0,0,0,0,0,0,0,0,0,0,0,0,0,0,0,0,0,0,0,0,0,0,0,0,0,0,0,0,0,0,0,0,0,0,0,0,0,0,0,0,0,0,0,0,0,0,0,0,0,0,0,0,0]}],[{"header":{"parameterUnit":"kt","parameterCategory":2,"dx":1,"dy":1,"la1":30.253999710083008,"la2":30.299108505249023,"lo1":-89.0895004272461,"lo2":-89.04439544677734,"nx":28,"ny":28,"refTime":"2022-09-23T21:00:00:Z","depth":"2","parameterNumber":3,"parameterNumberName":"V-component_of_CURRENTS"},"data":[-0.0331,-0.0237,-0.0157,0.0229,0.0444,0.0919,0.1243,0.1919,0.2241,0.2668,0.2614,0.2431,0.1382,0.06,-0.0179,-0.0691,-0.0772,-0.0743,-0.0601,-0.0594,-0.0584,-0.1185,-0.109,0,0,0,0,0,-0.0331,-0.0252,-0.0146,0.0084,0.0323,0.0433,0.0861,0.1263,0.1887,0.2143,0.2487,0.1821,0.1296,0.0576,-0.0469,-0.1036,-0.1122,-0.1139,-0.1209,-0.1208,-0.1208,-0.1149,-0.121,-0.1211,-0.1211,-0.1211,0,0,-0.0309,-0.0274,-0.0179,-0.0031,0.0138,0.0432,0.0668,0.0985,0.1366,0.1879,0.1799,0.197,0.1259,0.0462,-0.0098,-0.0766,-0.0797,-0.1102,-0.1105,-0.1108,-0.1041,-0.0917,-0.1074,-0.1074,-0.1073,-0.1073,-0.1073,0,-0.029,-0.0243,-0.0193,-0.0049,0.0083,0.0249,0.0447,0.0598,0.0819,0.1077,0.1393,0.1507,0.1094,0.0625,-0.0014,-0.0365,-0.0878,-0.0959,-0.0892,-0.1123,-0.0999,-0.0997,-0.0976,-0.1189,-0.1189,-0.1189,-0.1189,-0.1189,-0.0259,-0.0233,-0.0118,-0.005,0.0009,0.0122,0.0233,0.0349,0.0486,0.0721,0.0831,0.0806,0.0916,0.0456,-0.0121,-0.0591,-0.0657,-0.0951,-0.1074,-0.0912,-0.0914,-0.0892,-0.0871,-0.119,-0.119,-0.119,-0.119,0,-0.0255,-0.0195,-0.0131,-0.0044,0.0006,0.006,0.0228,0.0299,0.0383,0.0547,0.057,0.0553,0.0447,0.015,-0.0234,-0.0508,-0.081,-0.0908,-0.0829,-0.0844,-0.0893,-0.087,-0.1099,-0.1097,-0.1095,-0.1094,-0.1093,0,-0.024,-0.0183,-0.0103,-0.0067,0.0004,0.0063,0.0145,0.0176,0.0248,0.0366,0.027,0.0345,0.0024,-0.0106,-0.0373,-0.0609,-0.068,-0.0872,-0.0897,-0.0915,-0.0901,-0.0949,-0.0934,-0.1066,-0.1065,-0.1063,-0.1063,0,-0.0262,-0.0153,-0.0108,-0.007,0.0018,0.005,0.0099,0.013,0.0185,0.0174,0.0253,0.005,0.0061,-0.0234,-0.038,-0.0408,-0.0668,-0.0745,-0.0842,-0.0832,-0.0977,-0.097,-0.1061,-0.1061,-0.1061,-0.106,-0.106,0,-0.0241,-0.0198,-0.0118,-0.0047,-0.0018,0.0043,0.0085,0.013,0.0128,0.016,0.0098,0.0069,-0.0062,-0.0095,-0.0384,-0.0288,-0.0457,-0.0563,-0.0573,-0.0564,-0.0528,-0.0679,-0.0746,-0.0618,-0.0614,-0.0611,-0.0608,0,-0.0303,-0.021,-0.017,-0.0077,-0.0025,0.0022,0.0056,0.0087,0.0121,0.0147,0.0051,0.0047,-0.0007,-0.0001,-0.0142,-0.0248,-0.0392,-0.0267,-0.0571,-0.0579,-0.0481,-0.0524,-0.0561,-0.0693,-0.0566,-0.057,-0.0574,0,-0.0347,-0.0248,-0.0223,-0.0182,-0.0077,-0.0028,0.0013,0.0046,0.0068,0.0115,0.011,0.0028,0.0017,-0.0047,-0.0092,-0.0212,-0.0315,-0.0241,-0.0251,-0.0285,-0.0579,-0.0475,-0.0492,-0.0379,-0.0385,-0.039,-0.054,0,-0.0373,-0.0305,-0.0267,-0.0174,-0.0119,-0.0047,0.0008,0.0062,0.0114,0.0133,0.0106,0.0068,0.0003,-0.0004,-0.0036,-0.0167,-0.0165,-0.0213,-0.0272,-0.0288,-0.0341,-0.0366,-0.0098,-0.01,-0.0102,-0.0104,0,0,-0.0434,-0.0368,-0.0311,-0.0244,-0.0197,-0.0122,-0.0062,-0.0022,0.0069,0.0063,0.0117,0.0037,-0.0001,-0.0113,-0.0091,-0.0101,-0.0167,-0.0126,-0.0253,-0.0268,-0.0283,-0.0336,-0.0358,-0.0107,-0.0108,-0.0109,-0.0109,0,-0.0454,-0.0395,-0.0343,-0.0278,-0.0176,-0.0143,-0.0106,-0.0009,0.0027,0.008,0.0044,0.0021,0.0002,-0.0075,-0.0126,-0.0114,-0.0208,-0.0111,-0.0113,-0.0262,-0.0274,-0.0287,-0.034,-0.0358,-0.0114,-0.0113,-0.0113,0,-0.0485,-0.0435,-0.0401,-0.0303,-0.0244,-0.0182,-0.0156,-0.0067,-0.0027,-0.0058,0.0004,-0.0021,-0.0108,-0.0123,-0.0133,-0.0158,-0.0259,-0.0192,-0.0185,-0.0239,-0.04,-0.0412,-0.0423,-0.0285,-0.0285,-0.0285,0,0,-0.0495,-0.0445,-0.0363,-0.0301,-0.0263,-0.0189,-0.0143,-0.0092,-0.0056,-0.0031,-0.0027,-0.0061,-0.011,-0.0124,-0.0162,-0.0186,-0.0284,-0.0207,-0.0199,-0.0192,-0.024,-0.0398,-0.0409,-0.0284,-0.0284,-0.0284,0,0,-0.0502,-0.0421,-0.0387,-0.032,-0.0243,-0.0178,-0.0128,-0.0088,-0.0049,-0.0039,-0.0078,-0.0084,-0.0085,-0.0139,-0.0126,-0.0186,-0.0228,-0.0232,-0.013,-0.0121,-0.0113,-0.0157,-0.0187,0,0,0,0,0,-0.0476,-0.0437,-0.0407,-0.0386,-0.0278,-0.0198,-0.0182,-0.0114,-0.0094,-0.0047,-0.005,-0.0093,-0.0143,-0.0132,-0.0146,-0.0148,-0.0281,-0.0282,-0.0282,-0.0158,-0.0148,-0.0139,0,0,0,0,0,0,-0.0467,-0.0444,-0.0408,-0.0346,-0.032,-0.02,-0.0194,-0.0176,-0.0096,-0.0085,-0.009,-0.0096,-0.0132,-0.013,-0.0141,-0.0142,-0.0183,-0.0281,-0.0282,-0.0282,-0.0154,-0.0146,-0.0139,0,0,0,0,0,-0.046,-0.0442,-0.028,-0.0346,-0.0323,-0.0228,-0.0193,-0.0177,-0.0106,-0.0141,-0.0139,-0.0047,-0.0133,-0.0143,-0.0137,-0.0135,-0.0176,-0.018,-0.0282,-0.0282,-0.0282,-0.015,0,0,0,0,0,0,-0.0455,-0.0438,-0.0275,-0.0265,-0.0334,-0.0231,-0.0212,-0.0179,-0.0167,-0.016,-0.0109,-0.0104,-0.0134,-0.0141,-0.0149,-0.0129,-0.017,-0.0174,-0.0176,-0.0282,-0.0282,-0.0283,0,0,0,0,0,0,-0.0447,-0.0431,-0.027,-0.0259,-0.0249,-0.0234,-0.0217,-0.0264,-0.0173,-0.0139,-0.0131,-0.0108,-0.0159,-0.0141,-0.0146,-0.0221,-0.0165,-0.0169,-0.0172,-0.0173,-0.0282,-0.0282,0,0,0,0,0,0,-0.0439,-0.0426,-0.0262,-0.0254,-0.0244,-0.0141,-0.0281,-0.0197,-0.0079,-0.0145,-0.0075,-0.0073,-0.0162,-0.0164,-0.0145,-0.0217,-0.022,-0.0165,-0.0168,-0.017,-0.0171,0,0,0,0,0,0,0,-0.0433,-0.0539,-0.0322,-0.0249,-0.024,-0.018,-0.0178,-0.0176,-0.0079,-0.0077,-0.0075,-0.0074,-0.0143,-0.0147,-0.0151,-0.0213,0,0,-0.0165,-0.0167,0,0,0,0,0,0,0,0,-0.0543,-0.054,-0.0322,-0.032,-0.0318,-0.0179,-0.0178,-0.0176,-0.0079,-0.0077,-0.0076,-0.0074,-0.0144,-0.0147,-0.0151,0,0,0,0,0,0,0,0,0,0,0,0,0,0,0,-0.0322,-0.032,0,-0.0179,-0.0178,-0.0177,-0.0078,-0.0077,-0.0076,-0.0075,-0.0145,-0.0148,-0.0151,0,0,0,0,0,0,0,0,0,0,0,0,0,0,0,0,0,0,0,0,0,0,0,0,0,0,0,0,0,0,0,0,0,0,0,0,0,0,0,0,0,0,0,0,0,0,0,0,0,0,0,0,0,0,0,0,0,0,0,0,0,0,0,0,0,0,0,0,0]}]],[[{"header":{"parameterUnit":"kt","parameterCategory":2,"dx":1,"dy":1,"la1":30.253999710083008,"la2":30.299108505249023,"lo1":-89.0895004272461,"lo2":-89.04439544677734,"nx":28,"ny":28,"refTime":"2022-09-23T21:00:00:Z","depth":"4","parameterNumber":2,"parameterNumberName":"U-component_of_CURRENTS"},"data":[0.0712,0.079,0.0837,0.0939,0.1029,0.116,0.128,0.1439,0.1494,0.1795,0.1825,0.2099,0.2155,0.2334,0.2274,0.2296,0.2329,0.2521,0.2515,0.2673,0.2695,0.2715,0.2615,0,0,0,0,0,0.0772,0.0809,0.0916,0.1068,0.1231,0.1337,0.1554,0.1678,0.1942,0.1971,0.2194,0.2237,0.2324,0.2358,0.232,0.2448,0.257,0.2386,0.2508,0.2687,0.2711,0.2606,0,0,0,0,0,0,0.0871,0.0895,0.1047,0.1204,0.1384,0.149,0.1611,0.1786,0.1941,0.234,0.2307,0.2518,0.2756,0.2716,0.2603,0.2606,0.2616,0.2561,0.259,0.2614,0.2508,0.244,0.2243,0,0,0,0,0,0.0969,0.1079,0.1164,0.1353,0.1519,0.1668,0.1902,0.1963,0.2286,0.2536,0.2643,0.2746,0.2817,0.2876,0.2858,0.2745,0.2967,0.2835,0.285,0.2867,0.2843,0.2806,0.2814,0.2803,0.2806,0.2808,0.2809,0,0.1089,0.1158,0.1388,0.1491,0.1627,0.1862,0.1981,0.2278,0.2397,0.2735,0.2766,0.3024,0.3151,0.3008,0.3078,0.3011,0.2929,0.2897,0.2915,0.2882,0.2839,0.2841,0.2841,0.2829,0.2827,0.2825,0.2824,0,0.1157,0.1294,0.1413,0.1645,0.1742,0.1866,0.2184,0.2288,0.2586,0.2781,0.292,0.3179,0.3273,0.3356,0.3357,0.3255,0.3131,0.3015,0.3208,0.3169,0.288,0.2873,0.2861,0.2854,0.2848,0.2842,0.2838,0,0.1275,0.1353,0.1575,0.1619,0.1762,0.1957,0.2157,0.232,0.2578,0.2699,0.2985,0.3083,0.3345,0.3374,0.3317,0.3211,0.3325,0.3069,0.3022,0.3202,0.3195,0.3129,0.3111,0.3272,0.3272,0.3272,0.3271,0,0.1323,0.1474,0.1578,0.1626,0.1809,0.1961,0.2096,0.2306,0.244,0.2747,0.2901,0.3096,0.3287,0.3288,0.3291,0.3315,0.3287,0.3287,0.3041,0.3027,0.312,0.3104,0.3271,0.3271,0.3271,0.3271,0.3271,0,0.1404,0.1467,0.1578,0.1754,0.1799,0.1886,0.2116,0.2231,0.2451,0.2622,0.2858,0.2975,0.3147,0.3142,0.3227,0.3231,0.3195,0.3158,0.3158,0.2892,0.2795,0.2957,0.3117,0.3116,0.3115,0.3114,0.3113,0,0.143,0.1501,0.1584,0.1691,0.1761,0.1896,0.2004,0.2138,0.2322,0.2506,0.2664,0.2843,0.2885,0.3026,0.3063,0.3052,0.3078,0.304,0.2992,0.299,0.2795,0.2891,0.3053,0.3097,0.3099,0.31,0.3101,0,0.143,0.1569,0.1579,0.1648,0.1751,0.1783,0.1943,0.2067,0.2173,0.2404,0.2578,0.2741,0.2845,0.2876,0.2906,0.2936,0.3046,0.2923,0.2919,0.2943,0.3107,0.2897,0.2886,0.3043,0.3045,0.3046,0.309,0,0.1486,0.1554,0.1589,0.165,0.1702,0.1755,0.1838,0.1967,0.2128,0.2199,0.2422,0.2531,0.2681,0.2704,0.272,0.2813,0.2801,0.2746,0.2691,0.2797,0.28,0.281,0.2643,0.2639,0.2637,0.2634,0,0,0.1481,0.1517,0.1562,0.1595,0.1646,0.1691,0.174,0.1804,0.1943,0.2043,0.214,0.238,0.2419,0.2515,0.2596,0.2594,0.2608,0.2634,0.2741,0.2754,0.2765,0.2774,0.2787,0.2629,0.2628,0.2627,0.2626,0,0.1462,0.1516,0.1553,0.1573,0.1641,0.1664,0.1687,0.1776,0.187,0.2033,0.2076,0.2205,0.2364,0.2398,0.2425,0.2553,0.2527,0.2585,0.2707,0.2717,0.2733,0.2747,0.276,0.2773,0.2619,0.2619,0.262,0,0.1441,0.1469,0.1493,0.1525,0.1573,0.1605,0.1627,0.1699,0.1757,0.1812,0.2007,0.2079,0.2116,0.2258,0.232,0.2293,0.2452,0.2414,0.2428,0.2419,0.2422,0.2442,0.2459,0.2235,0.2234,0.2234,0,0,0.143,0.1468,0.1486,0.152,0.1551,0.1593,0.1625,0.167,0.1752,0.1807,0.1916,0.2016,0.2081,0.2157,0.221,0.2319,0.2282,0.2373,0.2391,0.2407,0.2407,0.2414,0.2433,0.2231,0.2231,0.2231,0,0,0.1422,0.1463,0.1483,0.1525,0.1543,0.1574,0.1637,0.1658,0.177,0.1838,0.1895,0.1926,0.2068,0.207,0.2035,0.2216,0.2131,0.2139,0.2257,0.2279,0.2296,0.229,0.2022,0,0,0,0,0,0.1415,0.1444,0.1461,0.1472,0.1532,0.1545,0.1557,0.1641,0.1699,0.1723,0.1854,0.185,0.208,0.2051,0.2064,0.2151,0.2199,0.2204,0.221,0.2382,0.2406,0.2425,0,0,0,0,0,0,0.1419,0.1428,0.1461,0.1486,0.1502,0.1545,0.1606,0.1627,0.17,0.1716,0.1828,0.185,0.1893,0.2044,0.2055,0.214,0.2018,0.2201,0.2206,0.221,0.239,0.2409,0.2426,0,0,0,0,0,0.1422,0.143,0.151,0.1487,0.1501,0.1601,0.1609,0.1628,0.17,0.1771,0.1796,0.1772,0.1888,0.1908,0.2051,0.2135,0.201,0.2014,0.2204,0.2208,0.2211,0.24,0,0,0,0,0,0,0.1425,0.1443,0.1515,0.1522,0.1521,0.1604,0.162,0.1628,0.1754,0.1777,0.1712,0.1722,0.1884,0.19,0.1915,0.2136,0.2003,0.2008,0.201,0.2207,0.221,0.2213,0,0,0,0,0,0,0.144,0.1448,0.1518,0.1556,0.1569,0.1606,0.162,0.1653,0.1756,0.1688,0.1701,0.1715,0.1885,0.1894,0.1906,0.1951,0.1998,0.2002,0.2005,0.2007,0.221,0.2212,0,0,0,0,0,0,0.1445,0.1452,0.1555,0.1564,0.1575,0.1662,0.1639,0.1711,0.1747,0.1682,0.1758,0.1763,0.1878,0.1891,0.19,0.1939,0.1948,0.1998,0.2001,0.2003,0.2004,0,0,0,0,0,0,0,0.1449,0.1381,0.1474,0.1571,0.1581,0.159,0.1592,0.1594,0.1748,0.1753,0.1757,0.1761,0.1974,0.1978,0.1983,0.1929,0,0,0.1998,0.2,0,0,0,0,0,0,0,0,0.138,0.1381,0.1474,0.1476,0.1478,0.159,0.1592,0.1593,0.1749,0.1752,0.1756,0.1759,0.1975,0.1979,0.1982,0,0,0,0,0,0,0,0,0,0,0,0,0,0,0,0.1475,0.1476,0,0.1591,0.1592,0.1593,0.175,0.1752,0.1755,0.1758,0.1976,0.1979,0.1982,0,0,0,0,0,0,0,0,0,0,0,0,0,0,0,0,0,0,0,0,0,0,0,0,0,0,0,0,0,0,0,0,0,0,0,0,0,0,0,0,0,0,0,0,0,0,0,0,0,0,0,0,0,0,0,0,0,0,0,0,0,0,0,0,0,0,0,0,0]}],[{"header":{"parameterUnit":"kt","parameterCategory":2,"dx":1,"dy":1,"la1":30.253999710083008,"la2":30.299108505249023,"lo1":-89.0895004272461,"lo2":-89.04439544677734,"nx":28,"ny":28,"refTime":"2022-09-23T21:00:00:Z","depth":"4","parameterNumber":3,"parameterNumberName":"V-component_of_CURRENTS"},"data":[0.0559,0.0665,0.0681,0.0784,0.0828,0.0923,0.0968,0.0967,0.0941,0.0906,0.068,0.059,0.017,0.0344,-0.0243,-0.0322,-0.0445,-0.0845,-0.0849,-0.1042,-0.1043,-0.1045,-0.1148,0,0,0,0,0,0.0494,0.0547,0.0662,0.0754,0.0853,0.0875,0.0974,0.0989,0.0986,0.0948,0.0877,0.0641,0.0222,0.0003,-0.0228,-0.0368,-0.072,-0.0647,-0.0802,-0.1043,-0.1045,-0.1144,0,0,0,0,0,0,0.0401,0.0478,0.0575,0.0663,0.0771,0.0837,0.087,0.0895,0.0916,0.0846,0.0796,0.049,0.0296,-0.0101,-0.0327,-0.0561,-0.0665,-0.0727,-0.0745,-0.075,-0.078,-0.0706,-0.0515,0,0,0,0,0,0.0308,0.0333,0.0434,0.0553,0.0626,0.0722,0.0777,0.0821,0.0797,0.0781,0.0668,0.0418,0.0181,-0.0208,-0.0415,-0.0669,-0.0931,-0.0944,-0.0948,-0.1126,-0.1097,-0.1137,-0.1147,-0.1051,-0.1051,-0.1052,-0.1052,0,0.0196,0.0248,0.0371,0.0433,0.0468,0.0533,0.0588,0.0572,0.0614,0.0541,0.0552,0.0313,0.0119,-0.0212,-0.0562,-0.0861,-0.0941,-0.0946,-0.1134,-0.11,-0.1138,-0.1149,-0.1159,-0.1053,-0.1053,-0.1053,-0.1053,0,0.0142,0.0172,0.0278,0.0357,0.0374,0.0426,0.0472,0.0513,0.0451,0.0461,0.0403,0.0165,-0.01,-0.0363,-0.0663,-0.0824,-0.1013,-0.1046,-0.1008,-0.1044,-0.1156,-0.1165,-0.1055,-0.1055,-0.1054,-0.1054,-0.1054,0,0.0086,0.0145,0.0199,0.0254,0.0344,0.0319,0.0376,0.0345,0.0306,0.0331,0.0094,0.0004,-0.0381,-0.0541,-0.0801,-0.1014,-0.0988,-0.1204,-0.1231,-0.1293,-0.1301,-0.1203,-0.1201,-0.1226,-0.1228,-0.1229,-0.123,0,0.0014,0.0088,0.0167,0.0192,0.0241,0.0254,0.0251,0.0215,0.0229,0.0095,0.0031,-0.0209,-0.0402,-0.0591,-0.0945,-0.1025,-0.1121,-0.1226,-0.1266,-0.1265,-0.1209,-0.1206,-0.1231,-0.1231,-0.1232,-0.1232,-0.1232,0,-0.0045,0.0017,0.0098,0.0154,0.0161,0.018,0.0187,0.0182,0.0104,0.0,-0.0191,-0.0385,-0.0615,-0.0818,-0.1052,-0.1109,-0.1232,-0.1348,-0.1345,-0.1257,-0.133,-0.1269,-0.1327,-0.1328,-0.133,-0.1331,-0.1332,0,-0.01,-0.0019,-0.002,0.0042,0.0071,0.0027,0.0041,0.0015,-0.0096,-0.0166,-0.0406,-0.0576,-0.0824,-0.1023,-0.1141,-0.1351,-0.1371,-0.1422,-0.1338,-0.1331,-0.1349,-0.1399,-0.1502,-0.1352,-0.1349,-0.1348,-0.1346,0,-0.0155,-0.0117,-0.0113,-0.0083,-0.0094,-0.0081,-0.0097,-0.0105,-0.0104,-0.0324,-0.0368,-0.0737,-0.09,-0.0986,-0.1198,-0.128,-0.1393,-0.1392,-0.1389,-0.1333,-0.1401,-0.1419,-0.1409,-0.1509,-0.1507,-0.1506,-0.136,0,-0.0175,-0.0156,-0.0153,-0.0135,-0.0137,-0.0129,-0.0161,-0.0209,-0.0324,-0.0371,-0.0565,-0.0812,-0.0978,-0.113,-0.1265,-0.1374,-0.136,-0.14,-0.1331,-0.139,-0.1317,-0.1308,-0.1375,-0.1372,-0.1369,-0.1367,0,0,-0.0234,-0.0191,-0.0225,-0.0204,-0.0192,-0.0255,-0.0229,-0.0266,-0.0356,-0.0381,-0.0518,-0.0818,-0.0971,-0.1107,-0.1228,-0.1285,-0.1274,-0.1289,-0.1369,-0.1371,-0.1371,-0.1306,-0.13,-0.1362,-0.1361,-0.136,-0.1359,0,-0.0227,-0.0242,-0.0227,-0.0226,-0.0245,-0.0263,-0.0264,-0.0321,-0.0363,-0.0472,-0.0585,-0.077,-0.0961,-0.1061,-0.1138,-0.1248,-0.1251,-0.1343,-0.1331,-0.1349,-0.1354,-0.1358,-0.1296,-0.1292,-0.1352,-0.1353,-0.1353,0,-0.0251,-0.0243,-0.0241,-0.0237,-0.0266,-0.026,-0.0307,-0.0335,-0.0332,-0.0461,-0.0548,-0.0718,-0.0826,-0.0994,-0.1062,-0.1026,-0.1172,-0.119,-0.1203,-0.1095,-0.1104,-0.1111,-0.1117,-0.1036,-0.1035,-0.1035,0,0,-0.0252,-0.0242,-0.0246,-0.0237,-0.0251,-0.0286,-0.0302,-0.0335,-0.0402,-0.0445,-0.0548,-0.0658,-0.0791,-0.0862,-0.0957,-0.107,-0.0991,-0.1159,-0.1174,-0.1187,-0.109,-0.11,-0.1107,-0.1034,-0.1034,-0.1034,0,0,-0.026,-0.0256,-0.0266,-0.0256,-0.0266,-0.03,-0.0327,-0.0347,-0.044,-0.0479,-0.0577,-0.0611,-0.077,-0.0778,-0.075,-0.0989,-0.0914,-0.0921,-0.1034,-0.1053,-0.1067,-0.0937,-0.0812,0,0,0,0,0,-0.0254,-0.0244,-0.0251,-0.025,-0.0274,-0.028,-0.029,-0.0352,-0.0386,-0.0402,-0.0512,-0.056,-0.0796,-0.0773,-0.0798,-0.0929,-0.1017,-0.102,-0.1023,-0.1193,-0.1212,-0.1228,0,0,0,0,0,0,-0.0254,-0.025,-0.0252,-0.0275,-0.0281,-0.0281,-0.0338,-0.0356,-0.0388,-0.0401,-0.0537,-0.0563,-0.0642,-0.0765,-0.0786,-0.0912,-0.0805,-0.1018,-0.1021,-0.1023,-0.1199,-0.1215,-0.1228,0,0,0,0,0,-0.0253,-0.0251,-0.0268,-0.0278,-0.0283,-0.035,-0.0341,-0.0356,-0.04,-0.0504,-0.0531,-0.0446,-0.0638,-0.0665,-0.0778,-0.0902,-0.0791,-0.0799,-0.102,-0.1022,-0.1024,-0.1207,0,0,0,0,0,0,-0.0253,-0.0286,-0.0272,-0.0277,-0.0296,-0.0354,-0.0364,-0.0356,-0.0506,-0.0527,-0.0417,-0.0425,-0.0635,-0.0657,-0.0677,-0.0899,-0.078,-0.0787,-0.0792,-0.1022,-0.1023,-0.1024,0,0,0,0,0,0,-0.0287,-0.0289,-0.0275,-0.0294,-0.0302,-0.0358,-0.0366,-0.0437,-0.051,-0.0415,-0.0423,-0.0419,-0.0629,-0.065,-0.0666,-0.0773,-0.0771,-0.0778,-0.0783,-0.0787,-0.1023,-0.1024,0,0,0,0,0,0,-0.029,-0.0292,-0.0294,-0.03,-0.0307,-0.0374,-0.0428,-0.0471,-0.0457,-0.0411,-0.0463,-0.0466,-0.0622,-0.0639,-0.0659,-0.0757,-0.0769,-0.0771,-0.0776,-0.078,-0.0782,0,0,0,0,0,0,0,-0.0292,-0.0255,-0.0232,-0.0305,-0.0312,-0.0319,-0.0321,-0.0323,-0.0458,-0.046,-0.0463,-0.0465,-0.0728,-0.0736,-0.0745,-0.0745,0,0,-0.077,-0.0774,0,0,0,0,0,0,0,0,-0.0256,-0.0255,-0.0232,-0.0232,-0.0233,-0.0319,-0.0321,-0.0323,-0.0458,-0.046,-0.0462,-0.0464,-0.0731,-0.0737,-0.0744,0,0,0,0,0,0,0,0,0,0,0,0,0,0,0,-0.0232,-0.0232,0,-0.0319,-0.0321,-0.0323,-0.0458,-0.046,-0.0462,-0.0463,-0.0732,-0.0738,-0.0743,0,0,0,0,0,0,0,0,0,0,0,0,0,0,0,0,0,0,0,0,0,0,0,0,0,0,0,0,0,0,0,0,0,0,0,0,0,0,0,0,0,0,0,0,0,0,0,0,0,0,0,0,0,0,0,0,0,0,0,0,0,0,0,0,0,0,0,0,0]}]]]